www.pogodaiklimat.ru

Погода и климат >> Архив погоды >> Камерун >> Douala


АРХИВ ПОГОДЫ в Douala

Время (UTC), дата Ветер
(напр.,м/с)
 
Видим.   Явления Облачность Т
(С)
Тd
(С)
f
(%)
Тe
(С)
Тes
(С)
Комфортность P
(гПа)
Po
(гПа)
Тmin
(С)
Tmax
(С)
R
(мм)
R24
(мм)
S
(см)
12 15.10 Ю 3 10 км {гроза} 9/5 480 м
[Cb cap Ac und]
+31.2 +21.8 57 +40 +43 очень
душно
1011.6 1010.6
15 15.10 ЮЗ 3 10 км 9/8 480 м
[Cb cap Ci ing]
+29.0 +24.0 74 +40 +41 очень
душно
1009.4 1008.4
21 15.10 штиль 0 10 км гроза без осадков 8/6 480 м
[Cb cap]
+25.5 +24.8 96 +36 +36 очень
душно
1013.4 1012.4
00 16.10 штиль 0 10 км гроза без осадков 6/4 400 м
[Cb cap Ac trans]
+25.0 +24.4 96 +35 +35 очень
душно
1012.3 1011.3
06 16.10 С 2 10 км гроза без осадков 9/8 300 м
[Cb cap Ac cuf]
+25.0 +24.3 96 +35 +35 очень
душно
1013.3 1012.3 +24.5
09 16.10 ЮЗ 2 10 км в посл. час гроза 9/4 400 м
[Cb cap Ac cuf]
+27.7 +21.8 70 +36 +39 очень
душно
1014.6 1013.6
12 16.10 В 2 10 км {гроза} 9/8 480 м
[Cb cap Ac cuf]
+32.0 +22.6 58 +42 +44 опасность
перегрева
1011.7 1010.7
18 16.10 ЮЗ 2 10 км зарница 9/6 480 м
[Cb cap Ac cuf]
+27.3 +23.4 79 +37 +37 очень
душно
1011.6 1010.6 +33.0
21 16.10 штиль 0 10 км гроза без осадков 9/9 480 м
[Cb cap Ac cuf]
+26.5 +24.6 89 +37 +37 очень
душно
1013.8 1012.8
00 17.10 штиль 0 10 км гроза без осадков 9/9 480 м
[Cb cap]
+25.5 +24.8 96 +36 +36 очень
душно
1012.3 1011.3
03 17.10 штиль 0 7000 м гроза без осадков {дождь} 9/9 400 м
[Cb cap]
+25.3 +24.9 98 +36 +36 очень
душно
1011.5 1010.5
06 17.10 ЮЗ 3 8000 м гроза без осадков {дождь} 10/9 400 м
[Cb cap]
+25.0 +24.3 96 +35 +35 очень
душно
1012.9 1011.9 +25.0 4
09 17.10 ЮЗ 1 10 км гроза без осадков {дождь} 9/6 400 м
[Cb cap Ac cuf]
+23.6 +21.2 86 +30 +33 очень
душно
1014.5 1013.5
18 17.10 штиль 0 10 км 5/5 480 м
[Cb cap]
+25.6 +23.3 87 +34 +34 очень
душно
1011.2 1010.2 +29.2 4
21 17.10 штиль 0 30 км 9/4 400 м
[Cb cap Ac lent Ci sp]
+25.0 +23.6 92 +34 +34 очень
душно
1013.8 1012.8
00 18.10 штиль 0 30 км 8/3 400 м
[Cb cap Ac As]
+24.0 +23.6 98 +33 +33 очень
душно
1012.1 1011.1
03 18.10 штиль 0 10 км 9/9 480 м
[Cb calv]
+23.9 +23.2 96 +32 +32 очень
душно
1010.9 1009.9
06 18.10 штиль 0 10 км 9/8 480 м
[Cb calv Ac cuf]
+23.8 +23.4 98 +32 +32 очень
душно
1012.5 1011.5 +23.5
12 18.10 З 4 10 км 9/8 480 м
[Cb cap Ci sp]
+30.5 +23.6 67 +42 +44 опасность
перегрева
1010.3 1009.3
15 18.10 ЮЗ 2 10 км гроза без осадков 9/9 400 м
[Cb cap]
+29.5 +24.8 76 +42 +43 опасность
перегрева
1008.4 1007.4
18 18.10 штиль 0 10 км гроза без осадков 8/4 400 м
[Cb cap Ac cuf]
+26.2 +24.8 92 +37 +37 очень
душно
1009.5 1008.5 +31.4
21 18.10 штиль 0 10 км гроза без осадков 8/4 400 м
[Cb cap Ac cuf]
+24.7 +24.0 96 +34 +34 очень
душно
1010.8 1009.8
00 19.10 штиль 0 10 км гроза без осадков 9/9 400 м
[Cb cap]
+24.1 +23.7 98 +33 +33 очень
душно
1010.0 1009.0
03 19.10 штиль 0 10 км гроза без осадков 9/9 400 м
[Cb cap]
+24.7 +24.3 98 +34 +34 очень
душно
1009.7 1008.7
06 19.10 штиль 0 10 км гроза без осадков 5/5 400 м
[Cb cap]
+24.3 +23.9 98 +33 +34 очень
душно
1010.7 1009.7 +24.0
09 19.10 ЮЗ 1 10 км гроза без осадков 8/8 480 м
[Cb cap]
+29.4 +23.4 70 +40 +43 очень
душно
1011.2 1011.2
12 19.10 ЮЗ 3 10 км гроза без осадков 8/8 480 м
[Cb cap]
+31.4 +24.3 66 +44 +47 опасность
перегрева
1009.2 1008.2
15 19.10 ЮЗ 2 10 км 6/6 480 м
[Cb cap]
+31.0 +23.9 66 +43 +45 опасность
перегрева
1006.8 1005.8
18 19.10 З 3 10 км гроза без осадков 9/9 480 м
[Cb cap Ac cuf]
+28.0 +25.2 85 +41 +41 опасность
перегрева
1007.8 1006.8 +32.3
21 19.10 штиль 0 10 км гроза без осадков 9/6 480 м
[Cb cap Ac cuf]
+26.0 +24.9 94 +37 +37 очень
душно
1009.8 1008.8
00 20.10 штиль 0 10 км гроза без осадков 8/8 400 м
[Cb cap]
+25.0 +24.3 96 +35 +35 очень
душно
1008.8 1007.8
03 20.10 штиль 0 10 км гроза без осадков 9/9 400 м
[Cb cap]
+25.5 +24.8 96 +36 +36 очень
душно
1007.7 1007.2
09 20.10 штиль 0 10 км гроза без осадков 9/9 400 м
[Cb cap]
+29.0 +25.5 81 +43 +44 опасность
перегрева
1010.9 1009.9
12 20.10 ЮЗ 2 10 км {гроза} 9/9 480 м
[Cb cap]
+32.0 +25.0 67 +46 +48 опасность
перегрева
1008.0 1007.0
15 20.10 ЮЗ 2 10 км гроза без осадков 6/6 480 м
[Cb cap]
+31.0 +24.7 69 +44 +46 опасность
перегрева
1006.1 1005.1
18 20.10 штиль 0 10 км гроза без осадков {дождь} 9/6 480 м
[Cb cap Ac As]
+27.0 +25.0 89 +39 +39 очень
душно
1007.5 1006.5 +32.6 1
21 20.10 штиль 0 10 км гроза без осадков 8/8 480 м
[Cb cap]
+25.6 +24.5 94 +36 +36 очень
душно
1009.7 1008.7
00 21.10 штиль 0 10 км гроза без осадков 9/9 480 м
[Cb cap]
+24.8 +23.6 93 +34 +34 очень
душно
1008.9 1007.9
06 21.10 штиль 0 10 км гроза без осадков 9/6 400 м
[Cb cap Ac cuf Ci ing]
+24.8 +24.4 98 +35 +35 очень
душно
1009.8 1008.8 +24.0 0.9

 

Местоположение метеостанции Douala (Камерун): широта 4.00 долгота 9.73 высота над уровнем моря 9 м.

В архиве по умолчанию представлена погода в Douala за последнюю неделю. Архивные данные за месяц целиком и за предыдущие месяцы, начиная с января 2011 года, Вы можете получить, выбрав интересующий диапазон дат из раскрывающегося списка и нажав кнопку "Ввод!".


*Определитесь, кто Вы:
робот инопланетянин человек

Внимание! Время в таблицах - всемирное. Для получения местного времени необходимо прибавить поправку, которая в Douala равна 1 ч.

Смотрите также архив погоды в соседних городах и на ближайших метеорологических станциях:

Погода в Malabo (Экваториальная Гвинея) (116 км)
Погода в Kalabar (Нигерия) (188 км)
Погода в Bata (Экваториальная Гвинея) (233 км)
Погода в Bitam (Габон) (289 км)
Погода в Port Harcourt (Нигерия) (315 км)
Погода в Oyem (Габон) (338 км)
Погода в Enugu (Нигерия) (365 км)
Погода в Libreville (Габон) (396 км)
Погода в Makurdi (Нигерия) (436 км)
Погода в Makokou (Габон) (517 км)

Пояснения к столбцам:

Ветер - указаны скорость ветра в м/с - средняя за 10 мин, порывы в срок и между сроками (в фигурных скобках) и направление, откуда дует ветер: С - северный, СВ - северо-восточный, В - восточный, ЮВ - юго-восточный, Ю - южный, ЮЗ - юго-западный, З - западный, СЗ - северо-западный.
Видимость - горизонтальная дальность видимости в метрах или километрах. При видимости от 1 до 10 км при отсутствии осадков обычно наблюдается дымка, при ухудшении видимости до 1 км и менее - туман. В сухую погоду видимость может ухудшаться дымом, пылью или мглою.
Явления - указаны атмосферные явления, наблюдавшиеся в срок или в последний час перед сроком; фигурными скобками обозначены явления, наблюдавшиеся между сроками (за 1-3 часа до срока); квадратными скобками обозначены град или гололедные отложения с указанием их диаметра в мм.
Облачность - указаны через наклонную черту общая и нижняя облачность в баллах и высота нижней границы облаков в метрах; квадратными скобками обозначены формы облаков: Ci - перистые, Cs - перисто-слоистые, Cc - перисто-кучевые, Ac - высококучевые, As - высокослоистые, Sc - слоисто-кучевые, Ns - слоисто-дождевые, Cu - кучевые, Cb - кучево-дождевые. Подробнее классификацию облаков см. в Атласе облаков (PDF).
T - Температура воздуха - температура, измеренная на высоте 2 м над землей.
Td - Температура точки росы - температура, при понижении до которой содержащийся в воздухе водяной пар достигнет насыщения.
f - Относительная влажность воздуха - влажноcть воздуха, измеренная на высоте 2 м над землей.
Te - Эффективная температура - температура, которую ощущает одетый по сезону человек в тени. Характеристика душности погоды. При расчете учитывается влияние влажности воздуха и скорости ветра на теплоощущения человека.
Tes - Эффективная температура на солнце - температура, которую ощущает человек, с поправкой на солнечный нагрев. Характеристика знойности погоды. Зависит от высоты солнца над горизонтом, облачности и скорости ветра. Ночью, в пасмурную погоду, а также при ветре 12 м/с и более поправка равна нулю.
P - Атмосферное давление - приведенное к уровню моря атмосферное давление.
Po - Атмосферное давление - измеренное на уровне метеостанции атмосферное давление.
Tmin - Минимальная температура - минимум температуры воздуха на высоте 2 м над землей.
Tmax - Максимальная температура - максимум температуры воздуха на высоте 2 м над землей.
R - Количество осадков - Количество выпавших осадков за период времени, мм. При наведении курсора мыши на число - период времени, за который выпало указанное количество осадков.
R24 - Количество осадков - Количество выпавших осадков за 24 часа, мм.
S - Снежный покров - Высота снежного покрова, см. При наведении курсора мыши на число - состояние снежного покрова и степень покрытия местности в баллах.